Location: Bremen
(53.0793°N, 8.8017°E)
Time: 21:08:52
(UTC+01:00)

Tiros 1 - Pass Details

Date: 05 December 2021
Orbit: 629 x 664 km, 48.4° (Epoch: 18 January)

Event Time Altitude Azimuth Distance (km) Brightness Sun altitude
Rises 18:31:59 0° 215° (SW) 2,913 11.2 -20.2°
Reaches altitude 10° 18:34:41 10° 200° (SSW) 2,013 10.1 -20.6°
Maximum altitude 18:38:16 22° 150° (SSE) 1,381 8.6 -21.1°
Enters shadow 18:38:17 22° 149° (SSE) 1,381 8.6 -21.1°
